Weather History for Seretse Khama, Botswana

Change the Weather History Date:

Saturday, February 4, 2012

  Actual Average Record
Temperature  
Mean Temperature 80 °F -  
Max Temperature 94 °F 86 °F 98 °F (2002)
Min Temperature 67 °F 65 °F 37 °F (2004)
Cooling Degree Days 16    
Growing Degree Days 30 (Base 50)    
Moisture  
Dew Point 56 °F    
Average Humidity 41    
Maximum Humidity 65    
Minimum Humidity 18    
Precipitation  
Precipitation 0.00 in - - ()
Sea Level Pressure  
Sea Level Pressure 30.02 in    
Wind  
Wind Speed 5 mph ()    
Max Wind Speed 10 mph    
Max Gust Speed -    
Visibility 6.1 miles    
Events      
Averages and records for this station are not official NWS values.
T = Trace of Precipitation, MM = Missing Value Source: Averaged Metar Reports

Daily Weather History Graph

Daily Weather History Graph

Search for Another Location

Airport:

Trip Planner

Search our weather history database for the weather conditions in past years. The results will help you decide how hot, cold, wet, or windy it might be!

Date:

Astronomy

Feb. 04, 2012 Rise Set
Actual Time 5:55 AM CAT 7:04 PM CAT
Civil Twilight 5:31 AM CAT 7:28 PM CAT
Nautical Twilight 5:02 AM CAT 7:57 PM CAT
Astronomical Twilight 4:33 AM CAT 8:26 PM CAT
Moon 4:20 PM CAT (2/4) 2:25 AM CAT (2/4)
Length of Visible Light 13h 57m
Length of Day
13h 09m
Waxing Gibbous, 87% of the Moon is Illuminated
Feb 4
Waxing Gibbous
Feb 7
Full
Feb 14
Last Quarter
Feb 22
New
Mar 1
First Quarter

Hourly Weather History & Observations

Time (CAT) Temp. Heat Index Dew Point Humidity Pressure Visibility Wind Dir Wind Speed Gust Speed Precip Events Conditions
12:00 AM 73.4 °F - 60.8 °F 65% 30.04 in - Variable 1.2 mph - N/A   Clear
1:00 AM 75.2 °F - 60.8 °F 61% 30.04 in - Variable 1.2 mph - N/A   Clear
2:00 AM 75 °F - 59 °F 47%  in 6 mi SE 5.8 mph - -   Partly Cloudy
2:00 AM 75.2 °F - 59.0 °F 57% 30.01 in - SE 5.8 mph - N/A   Clear
3:00 AM 75.2 °F - 59.0 °F 57% 30.01 in - ESE 5.8 mph - N/A   Clear
4:00 AM 75.2 °F - 59.0 °F 57% 30.01 in - South 4.6 mph - N/A   Clear
5:00 AM 73.4 °F - 57.2 °F 57% 30.04 in - East 6.9 mph - N/A   Clear
6:00 AM 71.6 °F - 57.2 °F 60% 30.04 in - ENE 6.9 mph - N/A   Clear
7:00 AM 73.4 °F - 57.2 °F 57% 30.06 in - ENE 9.2 mph - N/A   Clear
8:00 AM 78 °F - 58 °F 40%  in 6 mi ENE 10.4 mph - -   Scattered Clouds
8:00 AM 78.8 °F - 57.2 °F 47% 30.09 in - ENE 10.4 mph - N/A   Clear
9:00 AM 80.6 °F 80.8 °F 57.2 °F 45% 30.09 in - NE 10.4 mph - N/A   Clear
10:00 AM 82.4 °F 82.0 °F 57.2 °F 42% 30.09 in - NNE 10.4 mph - N/A   Clear
11:00 AM 86.0 °F 84.5 °F 55.4 °F 35% 30.06 in - NNE 9.2 mph - N/A   Clear
12:00 PM 89.6 °F 88.1 °F 57.2 °F 33% 30.06 in 6.2 mi NNE 6.9 mph - N/A   Partly Cloudy
1:00 PM 89.6 °F 87.3 °F 53.6 °F 29% 30.04 in 6.2 mi Variable 2.3 mph - N/A   Scattered Clouds
2:00 PM 91 °F - 53 °F 18%  in 6 mi West 5.8 mph - -   Haze
2:00 PM 91.4 °F - 51.8 °F 26% 30.01 in 6.2 mi Variable 5.8 mph - N/A   Partly Cloudy
3:00 PM 93.2 °F - 51.8 °F 24% 29.98 in 6.2 mi Variable 5.8 mph - N/A   Partly Cloudy
4:00 PM 95.0 °F - 51.8 °F 23% 29.95 in 6.2 mi ENE 9.2 mph - N/A   Partly Cloudy
5:00 PM 91.4 °F - 50.0 °F 24% 29.92 in 6.2 mi ESE 8.1 mph - N/A   Partly Cloudy
6:00 PM 91.4 °F - 51.8 °F 26% 29.92 in 6.2 mi SE 6.9 mph - N/A   Partly Cloudy
7:00 PM 89.6 °F - 51.8 °F 27% 29.95 in - ESE 8.1 mph - N/A   Clear
8:00 PM 86 °F - 57 °F 27%  in 6 mi South 9.2 mph - -   Partly Cloudy
8:00 PM 86.0 °F 84.5 °F 55.4 °F 35% 29.98 in - South 9.2 mph - N/A   Clear
9:00 PM 84.2 °F 83.5 °F 57.2 °F 40% 29.98 in - SSE 4.6 mph - N/A   Clear
10:00 PM 82.4 °F 82.0 °F 57.2 °F 42% 30.01 in - SE 4.6 mph - N/A   Clear
11:00 PM 82.4 °F 82.0 °F 57.2 °F 42% 30.01 in - East 3.5 mph - N/A   Clear